Location: Buckeye Ditch
(40.9104°N, 122.9517°W)
Time: 16:04:09
(UTC+00:00)

Transit 2A - Pass Details

Date: 20 May 2025
Orbit: 599 x 947 km, 66.7° (Epoch: 15 June)

Event Time Altitude Azimuth Distance (km) Brightness Sun altitude
Rises 13:31:03 0° 164° (SSE) 3,077 9.1 6.3°
Reaches altitude 10° 13:34:22 10° 141° (SE) 2,096 8.6 6.9°
Maximum altitude 13:36:57 15° 108° (ESE) 1,753 8.9 7.4°
Drops below altitude 10° 13:39:28 10° 74° (ENE) 2,016 11.6 7.8°
Sets 13:42:34 0° 50° (NE) 2,888 10.5 8.4°
